Regional Weather Roundup
Issued by NWS Raleigh/Durham, NC

Home | Current Version | Previous Version | Text Only | Print | Product List | Glossary On
Versions: 1 2 3 4 5 6 7 8 9 10 11 12 13 14 15 16 17 18 19 20 21 22 23 24 25 26 27 28
000
ASUS42 KRAH 291210
RWRRAH
NORTH CAROLINA WEATHER ROUNDUP
NATIONAL WEATHER SERVICE RALEIGH NC
800 AM EDT FRI JUL 29 2016

NOTE: "FAIR" INDICATES FEW OR NO CLOUDS BELOW 12,000 FEET WITH NO
SIGNIFICANT WEATHER AND/OR OBSTRUCTIONS TO VISIBILITY.

NCZ001-053-055-056-065-067-291300-
WESTERN NORTH CAROLINA

CITY           SKY/WX    TMP DP  RH WIND       PRES   REMARKS
ASHEVILLE      SUNNY     71  66  84 N9        30.05R
JEFFERSON      CLOUDY    67  60  80 W7G16     30.07R
HICKORY        CLOUDY    76  67  73 CALM      29.97R
RUTHERFORDTON    N/A     74  73  96 CALM      29.98S
MOUNT AIRY     CLOUDY    75  69  82 W7        29.99R
BOONE          CLOUDY    65  64  94 NW16G23   30.08R
$$

NCZ021-022-025-041-071-084-088-291300-
CENTRAL NORTH CAROLINA

CITY           SKY/WX    TMP DP  RH WIND       PRES   REMARKS
CHARLOTTE      MOSUNNY   78  69  73 W3        29.96R
GREENSBORO     MOSUNNY   77  68  73 NW12      29.93R
WINSTON-SALEM  CLOUDY    77  68  73 NW8       29.95R
RALEIGH-DURHAM MOSUNNY   79  71  76 W7        29.89R
FORT BRAGG     SUNNY     81  70  69 SW12      29.89R
FAYETTEVILLE   SUNNY     82  69  64 SW14      29.90R
BURLINGTON     MOSUNNY   77  70  79 W6        29.91R
LAURINBURG     SUNNY     80  71  74 SW10      29.92R
$$

NCZ011-015-027-028-043-044-047-080-103-291300-
NORTHEASTERN NORTH CAROLINA

CITY           SKY/WX    TMP DP  RH WIND       PRES   REMARKS
ROCKY MT-WILSO SUNNY     80  73  79 SW7       29.87R
GREENVILLE     SUNNY     81  73  78 SW8       29.90R HAZE
WASHINGTON     SUNNY     81  74  81 SW10      29.88R
ELIZABETH CITY SUNNY     84  72  67 SW13G22   29.85R
MANTEO         NOT AVBL
CAPE HATTERAS  SUNNY     82  77  84 SW9       29.89R
$$

NCZ078-087-090-091-093-098-101-291300-
SOUTHEASTERN NORTH CAROLINA

CITY           SKY/WX    TMP DP  RH WIND       PRES   REMARKS
LUMBERTON      SUNNY     81  71  71 SW13      29.91R
GOLDSBORO      SUNNY     82  74  75 SW12      29.87R
KINSTON        SUNNY     82  73  74 SW6       29.89R
KENANSVILLE    NOT AVBL
NEW BERN       SUNNY     82  74  76 W8        29.90S
CHERRY POINT   SUNNY     83  75  77 SW9       29.90S
BEAUFORT       SUNNY     83  78  85 SW13      29.91R
JACKSONVILLE   SUNNY     82  74  76 SW10      29.90R
WILMINGTON     SUNNY     83  74  74 SW12      29.92S
$$





USA.gov is the U.S. government's official web portal to all federal, state and local government web resources and services.